Temperature
6 9 9 8 7 8 8 8 9 8 6 6 7 7 7 6 5 5 4 4 3 3 3 3 4 4 4 5 5 5 5 5 5 5 5 5 5 5 6 6 6 6 6 7
8 7 6 5 6 6 7 7 8 7 5 5 6 6 7 6 5 4 4 3 3 3 2 2 3 3 3 4 4 4 4 4 4 4 4 5 5 5 5 6 6 6 6 6
8 6 4 5 5 6 6 7 7 6 5 5 5 7 7 6 4 3 3 2 2 2 2 2 2 2 3 3 3 3 3 4 4 4 4 4 4 4 4 5 5 5 5 6
6 4 4 5 5 5 6 5 5 4 5 7 5 8 8 6 5 4 3 2 2 1 1 1 1 2 2 2 2 2 2 3 3 3 3 3 3 3 4 4 4 5 5 5
5 3 4 4 4 4 5 3 3 4 4 5 5 5 8 5 5 5 4 2 1 1 1 1 1 1 1 2 2 2 2 2 2 2 2 3 3 3 3 4 4 4 4 4
3 2 3 3 3 3 3 3 3 3 4 5 5 6 8 6 5 4 3 2 1 0 0 0 1 1 1 1 1 1 1 2 2 2 2 2 2 2 3 3 3 3 4 4
3 3 2 2 3 3 3 4 6 6 6 7 4 4 6 5 3 3 2 1 0 -0 -0 -0 -0 0 0 1 1 1 1 1 1 2 2 2 2 2 2 2 3 3 3 3
5 5 2 2 3 3 3 4 6 6 7 7 3 4 5 2 1 0 -0 -0 -1 -1 -1 -1 -1 -0 -0 0 0 0 1 1 1 1 1 1 1 2 2 2 2 2 2 3
5 4 1 1 1 2 2 3 2 3 3 4 6 4 4 2 1 0 -0 -1 -1 -1 -1 -1 -1 -1 -0 -0 -0 -0 0 0 0 0 1 1 1 1 1 1 2 2 2 2
3 2 1 0 1 0 1 2 2 3 4 5 6 5 5 3 2 1 -0 -1 -1 -2 -2 -2 -1 -1 -1 -1 -1 -1 -0 -0 -0 -0 0 0 0 0 1 1 1 1 1 2
1 2 1 1 0 1 0 0 1 2 2 4 5 6 3 2 1 0 -1 -1 -2 -2 -2 -2 -2 -2 -1 -1 -1 -1 -1 -0 -0 -0 -0 -0 -0 0 0 0 1 1 1 1
-0 1 1 1 -1 -1 -0 0 1 2 2 1 3 4 1 0 -1 -1 -2 -2 -2 -3 -2 -2 -2 -2 -2 -2 -2 -2 -1 -1 -1 -1 -1 -1 -1 -0 -0 -0 -0 0 0 0
-1 0 2 2 -0 -2 -2 -2 -2 -1 0 1 2 3 0 -1 -1 -2 -2 -3 -3 -3 -3 -3 -3 -3 -3 -2 -2 -2 -2 -1 -1 -1 -1 -1 -1 -1 -1 -1 -1 -0 -0 -0
-0 -0 1 3 3 0 -1 -2 -3 -1 0 1 1 2 1 0 -1 -2 -3 -3 -4 -4 -4 -3 -3 -3 -3 -3 -3 -3 -2 -2 -2 -2 -2 -2 -2 -1 -1 -1 -1 -1 -1 -1
-1 -0 -1 -1 -1 -1 -1 -2 -3 -2 -1 0 1 -0 0 -1 -2 -3 -3 -4 -4 -4 -4 -4 -4 -4 -3 -3 -3 -3 -3 -3 -2 -2 -2 -2 -2 -2 -2 -2 -2 -2 -2 -1
-2 -2 -2 -2 -2 -3 -2 -2 -2 -2 -2 -2 -1 -1 -0 -2 -3 -4 -4 -4 -5 -5 -5 -5 -5 -4 -4 -4 -4 -3 -3 -3 -3 -3 -3 -3 -3 -3 -3 -2 -2 -2 -2 -2
-2 -3 -2 -0 -3 -3 -1 -2 -2 -2 -3 -2 -1 -1 -2 -3 -4 -4 -5 -5 -5 -5 -5 -5 -5 -5 -5 -5 -4 -4 -3 -3 -3 -3 -3 -3 -3 -3 -3 -3 -3 -3 -3 -3
-3 -3 -2 -2 -2 -1 0 -3 -3 -3 -3 -4 -3 -3 -3 -4 -5 -5 -5 -5 -6 -6 -6 -6 -5 -5 -5 -5 -4 -4 -4 -4 -4 -4 -4 -4 -4 -3 -3 -3 -3 -3 -3 -3
-4 -3 -2 -2 -1 -0 -1 -3 -4 -4 -3 -4 -4 -4 -5 -6 -5 -4 -5 -6 -6 -6 -6 -6 -6 -6 -5 -5 -5 -5 -4 -4 -4 -4 -4 -4 -4 -4 -4 -4 -4 -4 -4 -4
-5 -4 -3 -3 -2 -1 -0 -4 -5 -4 -3 -4 -5 -5 -6 -6 -3 -3 -5 -6 -6 -6 -6 -6 -6 -6 -6 -5 -5 -5 -5 -5 -5 -5 -5 -5 -5 -4 -4 -4 -4 -4 -4 -4
-5 -4 -4 -3 -2 -1 -3 -6 -5 -3 -2 -4 -6 -6 -6 -6 -5 -6 -6 -7 -7 -7 -7 -6 -6 -6 -6 -6 -6 -5 -5 -5 -5 -5 -5 -5 -5 -5 -5 -5 -5 -5 -5 -5
-4 -4 -4 -4 -3 -2 -5 -6 -4 -3 -5 -5 -6 -6 -7 -7 -7 -7 -7 -7 -7 -7 -7 -7 -7 -7 -6 -6 -6 -6 -6 -6 -6 -5 -5 -5 -5 -5 -5 -5 -5 -5 -5 -5
-5 -4 -3 -3 -2 -4 -6 -5 -5 -6 -6 -6 -6 -6 -7 -7 -7 -7 -7 -7 -7 -7 -7 -7 -7 -7 -7 -7 -7 -7 -7 -6 -6 -6 -6 -6 -6 -5 -6 -5 -5 -5 -5 -6
-6 -8 -6 -6 -5 -6 -6 -6 -6 -6 -6 -6 -7 -7 -7 -7 -7 -8 -8 -8 -8 -7 -7 -7 -7 -7 -7 -7 -7 -7 -7 -7 -7 -6 -6 -6 -6 -6 -6 -6 -6 -6 -6 -6
-6 -7 -7 -6 -6 -7 -6 -6 -6 -6 -6 -7 -7 -7 -7 -7 -8 -8 -8 -8 -8 -8 -8 -8 -8 -8 -8 -8 -7 -7 -7 -7 -7 -7 -7 -7 -6 -6 -6 -6 -6 -6 -6 -6
-7 -8 -6 -5 -6 -6 -6 -6 -6 -6 -7 -7 -7 -7 -7 -8 -8 -8 -8 -8 -8 -8 -8 -8 -8 -8 -8 -8 -8 -8 -8 -8 -8 -8 -7 -7 -7 -7 -7 -7 -6 -6 -6 -6
Wind_Speed
1 2 4 5 5 3 3 5 7 6 3 5 10 13 12 9 8 9 8 7 6 6 5 4 3 3 3 2 2 3 3 2 1 1 2 2 2 2 2 2 2 2 2 2
2 3 2 1 2 2 4 6 7 5 3 5 9 14 12 8 8 7 7 6 6 6 4 4 3 3 3 3 3 3 3 2 2 2 2 3 3 3 3 2 3 3 3 2
4 1 2 3 3 4 5 6 6 5 6 4 7 9 7 5 5 4 4 4 4 4 4 4 4 4 3 3 3 3 3 3 3 2 2 2 2 2 2 3 3 3 3 3
2 1 3 4 4 4 5 3 4 5 5 4 3 7 6 4 5 4 4 4 4 4 4 4 4 4 4 4 3 3 3 3 3 3 2 3 3 3 4 3 3 4 4 4
1 1 2 3 2 3 1 1 2 5 6 6 6 7 7 3 5 5 5 4 4 4 4 4 4 4 4 3 3 3 3 3 3 3 4 4 4 4 4 3 4 4 4 4
0 1 1 0 1 0 1 0 1 2 4 7 7 8 6 4 4 3 4 4 4 4 4 3 3 3 3 3 3 3 3 4 4 4 4 5 5 5 5 5 4 4 4 4
0 1 0 0 1 1 2 1 2 3 5 6 2 6 6 1 2 3 4 4 4 3 3 3 3 3 3 3 3 3 4 4 4 4 5 6 6 6 6 6 5 5 4 4
3 3 1 1 1 2 3 3 4 5 6 5 3 7 4 1 2 3 3 3 3 3 3 4 4 4 4 4 4 4 5 5 5 5 6 6 6 5 5 6 6 6 5 5
4 3 1 2 2 2 3 3 1 2 4 6 6 6 6 2 3 3 3 4 5 5 5 5 4 4 4 4 4 5 5 5 6 6 6 6 6 6 6 7 7 6 6 6
1 2 1 1 1 1 1 3 3 4 4 7 7 7 4 3 4 4 5 5 6 6 6 6 5 5 5 5 5 5 5 5 6 6 6 5 6 6 7 6 7 7 7 7
1 2 1 2 4 4 3 3 3 3 4 5 7 5 1 3 4 5 6 6 7 7 7 6 6 5 5 5 5 5 5 5 5 6 6 6 5 6 7 6 7 7 7 7
1 2 3 3 1 2 3 4 5 4 5 5 6 6 1 3 4 6 7 7 7 8 7 7 6 5 5 5 5 5 5 5 5 5 6 6 5 5 6 7 7 8 8 7
3 3 2 2 2 2 3 3 4 2 3 6 7 7 2 4 6 6 8 8 8 8 8 7 7 6 6 6 5 5 5 5 5 5 5 5 5 5 6 7 7 7 7 8
2 4 6 7 4 3 5 6 6 6 6 8 11 13 10 9 9 10 9 8 8 8 8 8 8 7 6 6 6 5 5 5 5 5 5 5 5 6 7 7 7 7 7 8
3 4 5 7 7 5 8 9 10 11 11 10 11 12 13 10 10 9 9 9 9 9 9 9 9 8 8 7 6 6 5 5 5 5 5 5 5 6 6 7 7 7 7 8
2 3 2 5 4 5 8 11 12 12 11 13 15 15 9 8 7 8 9 9 9 10 10 10 10 10 9 8 8 7 6 5 5 5 5 5 6 6 6 7 7 7 8 8
4 4 3 4 3 4 8 8 10 7 8 8 11 9 7 8 9 9 9 9 9 10 10 10 10 10 9 9 8 7 6 5 5 5 5 6 6 6 7 7 7 7 8 8
5 4 2 2 2 7 2 1 4 7 7 8 8 8 8 9 11 10 8 7 9 9 10 10 9 9 9 9 8 6 5 5 5 6 6 6 6 7 7 7 7 8 7 8
4 4 3 3 5 7 3 2 3 5 6 5 7 8 8 8 8 6 4 5 8 9 9 9 9 9 9 8 7 6 6 5 5 6 6 6 7 7 8 8 8 8 8 8
1 3 3 4 5 6 2 1 1 2 4 2 3 6 6 6 6 6 6 8 9 9 9 9 9 9 8 8 7 6 6 6 6 7 7 7 7 8 8 9 8 8 8 9
3 3 6 7 7 7 1 2 3 3 3 1 4 5 5 5 6 8 10 9 9 9 9 8 8 8 8 8 7 7 7 7 8 7 7 7 7 8 8 8 8 8 8 8
6 5 6 5 6 6 3 4 4 3 2 2 4 5 6 7 8 9 9 9 9 9 9 8 8 8 8 7 7 7 8 8 8 7 7 7 7 7 7 7 7 7 7 7
5 4 4 6 5 2 4 4 2 1 3 4 5 5 6 7 8 9 9 9 9 8 8 8 8 9 8 8 7 8 9 8 8 7 8 7 7 6 6 6 6 6 6 6
3 2 3 5 7 5 5 5 4 4 5 6 5 5 5 6 8 9 8 8 8 8 8 8 8 9 9 9 8 8 8 8 7 8 8 7 6 6 6 5 5 5 5 5
3 3 4 6 6 6 5 6 6 5 5 5 5 5 5 6 7 8 8 8 8 8 8 7 7 8 9 9 9 8 8 8 8 8 8 7 7 6 6 5 5 6 6 6
3 4 4 5 4 4 5 4 4 4 5 5 5 6 6 6 7 7 7 7 7 8 8 7 8 8 9 9 9 8 8 7 7 7 7 6 6 6 5 5 6 6 7 10
Wind_Direction
36 191 211 216 225 268 239 240 258 271 291 270 258 266 267 261 251 246 241 240 245 253 267 273 264 262 271 278 293 294 257 257 265 265 267 242 248 267 279 293 279 273 273 289
179 221 227 205 205 225 232 247 263 280 297 283 276 274 268 249 235 235 237 243 250 253 260 271 265 262 267 268 274 283 278 252 248 250 261 247 249 249 267 281 281 264 264 269
208 165 188 191 206 227 245 248 259 277 304 271 287 273 237 218 216 225 238 249 253 260 270 272 269 261 263 266 264 268 273 271 253 249 260 258 250 257 260 268 267 275 265 258
212 189 198 208 224 231 255 254 254 263 272 269 270 279 244 211 220 229 244 251 260 269 272 266 261 265 264 267 265 268 270 273 272 248 246 237 236 260 277 275 273 275 262 257
195 196 205 219 241 242 252 330 264 257 253 265 237 249 256 196 235 245 241 253 269 273 278 274 266 260 264 266 266 264 266 270 279 261 249 235 240 253 261 265 270 276 269 261
91 317 303 231 360 216 152 242 251 222 232 249 228 230 256 214 236 259 258 269 282 287 290 284 275 262 263 260 261 264 263 270 274 268 256 236 238 250 258 263 268 272 275 271
231 174 91 262 162 157 222 240 271 244 230 244 177 235 253 253 267 283 296 296 296 287 291 289 285 277 272 268 267 267 266 269 273 269 261 242 236 240 246 254 257 264 267 269
215 224 177 302 262 218 219 237 245 259 263 272 228 240 247 316 328 328 320 317 323 307 303 292 283 277 276 272 271 270 264 267 269 269 269 248 239 238 242 246 252 254 257 262
223 227 31 349 335 252 191 209 298 271 281 270 252 259 273 257 307 331 341 340 332 318 315 304 293 284 281 278 275 271 270 272 273 270 271 255 244 241 245 249 250 252 256 262
222 242 257 291 212 25 300 168 182 215 253 266 265 259 263 279 300 307 317 327 324 319 314 309 299 293 288 284 281 276 272 272 277 279 271 261 252 248 246 249 252 254 256 258
209 204 236 224 217 215 179 194 215 221 254 261 276 272 301 289 307 298 299 311 317 316 309 306 299 294 292 292 289 280 276 277 279 281 276 268 264 258 252 249 253 256 257 256
171 206 241 244 300 307 248 220 197 227 239 245 266 274 39 324 323 315 309 310 314 315 312 309 300 292 291 294 291 288 283 281 281 282 278 274 273 268 262 256 256 259 259 258
164 181 238 237 210 200 228 223 224 239 240 235 248 266 348 322 326 319 313 315 317 317 317 315 311 298 294 295 292 288 286 285 286 282 277 277 280 274 269 268 263 260 260 259
202 220 240 259 284 210 233 233 220 213 231 246 248 268 286 303 314 317 316 314 314 314 316 315 314 311 304 300 296 286 287 288 288 282 275 277 281 276 274 273 270 263 259 257
197 234 247 272 279 259 252 245 228 227 237 247 264 268 279 297 302 305 307 311 314 315 318 318 315 314 313 309 301 295 292 291 285 279 276 277 281 280 276 277 274 269 262 261
195 222 242 271 268 263 265 254 239 238 244 252 267 276 290 303 305 304 303 308 308 311 314 316 317 315 312 307 300 297 293 289 282 274 279 281 281 280 275 277 276 273 268 264
185 181 216 260 308 288 264 242 223 230 229 234 253 274 313 309 305 302 300 303 301 305 308 311 314 312 308 305 295 289 282 284 281 278 279 281 281 281 280 278 276 273 272 266
182 182 216 261 270 242 268 77 213 227 246 239 261 283 297 301 301 290 283 290 301 306 308 309 310 309 308 307 301 291 287 278 276 277 279 279 280 282 283 279 274 273 273 268
204 186 199 224 253 268 272 231 195 220 261 239 251 279 301 318 306 291 284 298 303 306 306 306 308 308 310 309 307 303 292 282 279 278 280 282 282 282 281 278 274 274 272 270
129 195 206 218 244 252 282 104 153 194 261 210 248 279 301 319 308 318 329 317 312 313 312 313 316 316 316 318 316 309 303 294 286 286 285 284 280 277 276 276 275 273 270 269
176 195 215 228 245 264 285 150 164 222 296 318 270 277 281 280 282 307 315 313 312 314 314 317 318 318 319 321 319 312 307 300 298 294 289 286 283 280 277 277 274 272 272 271
189 190 203 208 229 253 138 156 205 271 349 287 285 284 282 283 294 304 309 311 316 319 320 323 322 320 322 324 321 314 310 309 308 303 296 291 289 287 283 281 278 274 271 270
213 215 219 213 233 318 183 215 260 296 277 284 287 284 280 287 296 304 307 310 313 315 317 320 321 320 323 325 321 313 313 316 313 309 304 301 299 295 290 284 281 279 273 270
235 258 238 254 264 272 258 268 279 278 276 282 282 282 277 282 293 301 305 309 312 314 316 319 320 319 320 324 322 315 317 320 317 313 311 310 307 303 301 292 283 278 276 274
239 200 239 260 281 297 271 258 270 281 284 286 288 284 278 280 289 296 301 305 308 311 315 316 314 313 314 320 321 323 324 327 322 318 316 316 313 306 304 299 290 284 281 276
216 208 224 257 267 264 283 288 273 277 284 286 290 297 293 284 285 294 296 300 304 308 312 314 314 314 315 319 321 324 328 327 323 320 321 318 315 313 310 308 306 300 293 299
Height
1516 1515 1513 1515 1517 1516 1515 1514 1512 1514 1520 1519 1512 1508 1507 1509 1510 1510 1510 1511 1511 1511 1511 1510 1510 1511 1511 1511 1511 1511 1511 1512 1512 1512 1512 1512 1512 1513 1513 1514 1514 1514 1514 1515
1515 1515 1519 1520 1521 1519 1517 1515 1512 1515 1519 1518 1511 1506 1503 1505 1506 1507 1507 1508 1508 1508 1508 1507 1507 1507 1507 1507 1508 1508 1508 1509 1509 1509 1509 1510 1510 1510 1510 1511 1511 1511 1511 1512
1511 1518 1521 1520 1519 1518 1516 1514 1512 1515 1518 1517 1514 1498 1497 1501 1504 1505 1506 1505 1505 1505 1505 1504 1504 1504 1504 1504 1504 1504 1505 1505 1506 1506 1506 1507 1507 1507 1507 1507 1507 1508 1508 1508
1516 1520 1520 1519 1518 1517 1513 1517 1518 1519 1515 1507 1512 1495 1489 1496 1500 1501 1502 1502 1503 1503 1502 1502 1501 1501 1501 1501 1501 1501 1502 1502 1502 1503 1503 1503 1502 1502 1503 1503 1503 1504 1504 1504
1517 1520 1519 1518 1518 1519 1517 1521 1520 1519 1515 1512 1510 1507 1485 1495 1495 1497 1499 1500 1500 1500 1500 1499 1498 1498 1498 1498 1498 1498 1498 1499 1499 1499 1499 1499 1499 1499 1500 1500 1500 1500 1500 1500
1521 1523 1522 1520 1522 1521 1522 1521 1520 1519 1514 1506 1501 1500 1481 1488 1492 1494 1496 1497 1497 1497 1497 1496 1495 1495 1495 1495 1495 1495 1495 1495 1495 1495 1495 1495 1495 1496 1496 1496 1496 1496 1496 1496
1518 1521 1523 1523 1520 1522 1521 1515 1507 1502 1500 1489 1505 1501 1487 1490 1494 1495 1496 1496 1495 1495 1494 1493 1492 1492 1491 1491 1491 1492 1491 1491 1491 1492 1491 1492 1492 1492 1492 1492 1492 1492 1492 1492
1510 1511 1521 1522 1520 1518 1519 1516 1507 1499 1487 1484 1505 1495 1487 1495 1496 1496 1496 1495 1493 1493 1492 1490 1490 1489 1488 1488 1488 1488 1487 1487 1487 1487 1487 1487 1488 1488 1488 1488 1488 1488 1488 1488
1508 1511 1523 1523 1523 1521 1518 1515 1519 1514 1513 1505 1487 1490 1490 1492 1493 1494 1494 1493 1492 1491 1490 1488 1487 1486 1485 1484 1484 1483 1483 1483 1483 1483 1482 1482 1483 1483 1483 1484 1484 1484 1483 1483
1516 1517 1521 1523 1523 1523 1521 1519 1518 1513 1503 1489 1481 1484 1481 1488 1490 1492 1492 1492 1491 1489 1487 1485 1484 1483 1482 1481 1480 1479 1479 1478 1478 1478 1478 1478 1478 1478 1479 1479 1479 1479 1479 1479
1519 1517 1520 1521 1520 1516 1522 1522 1517 1512 1510 1496 1484 1479 1486 1489 1491 1492 1491 1491 1489 1487 1485 1483 1481 1480 1479 1477 1476 1475 1475 1474 1474 1474 1474 1473 1473 1473 1474 1474 1474 1474 1474 1474
1519 1516 1514 1517 1522 1523 1520 1517 1516 1511 1509 1509 1496 1487 1491 1491 1492 1492 1491 1489 1488 1486 1483 1481 1479 1477 1475 1474 1472 1471 1470 1470 1470 1470 1469 1469 1469 1468 1469 1468 1468 1468 1468 1468
1519 1517 1510 1507 1518 1523 1521 1520 1520 1518 1513 1507 1498 1488 1491 1492 1491 1492 1490 1488 1486 1483 1481 1478 1476 1474 1472 1470 1468 1467 1467 1466 1466 1465 1465 1464 1464 1464 1464 1463 1463 1463 1462 1462
1516 1515 1508 1498 1497 1508 1514 1517 1519 1516 1509 1501 1496 1488 1489 1490 1490 1490 1488 1486 1484 1481 1478 1475 1473 1470 1468 1466 1465 1464 1463 1462 1461 1461 1460 1459 1459 1459 1459 1458 1458 1457 1457 1457
1515 1512 1513 1510 1510 1511 1509 1510 1514 1513 1504 1500 1491 1492 1487 1489 1490 1489 1487 1484 1481 1478 1475 1472 1470 1467 1464 1462 1461 1460 1459 1458 1457 1456 1456 1455 1455 1455 1454 1453 1452 1452 1451 1451
1514 1513 1515 1512 1511 1512 1509 1504 1506 1506 1504 1500 1496 1491 1488 1490 1489 1487 1485 1482 1479 1476 1473 1470 1467 1464 1461 1459 1457 1456 1455 1454 1453 1452 1451 1451 1450 1450 1449 1448 1447 1446 1445 1445
1512 1514 1511 1502 1511 1509 1498 1496 1498 1499 1497 1497 1492 1488 1489 1488 1486 1484 1482 1480 1477 1474 1471 1467 1465 1462 1459 1456 1454 1452 1451 1450 1449 1448 1447 1447 1446 1445 1444 1442 1441 1440 1439 1439
1511 1511 1510 1506 1509 1500 1489 1496 1495 1496 1494 1495 1492 1490 1489 1488 1485 1482 1480 1478 1474 1471 1468 1465 1462 1459 1456 1453 1451 1449 1447 1446 1446 1445 1443 1442 1441 1440 1438 1437 1436 1435 1434 1433
1510 1509 1508 1505 1498 1488 1490 1493 1495 1495 1490 1490 1490 1489 1487 1486 1482 1478 1477 1475 1473 1470 1466 1463 1459 1456 1452 1449 1447 1445 1444 1443 1441 1440 1439 1438 1436 1434 1433 1432 1431 1429 1428 1427
1511 1510 1507 1505 1497 1486 1483 1493 1493 1494 1487 1487 1488 1487 1486 1484 1479 1475 1474 1472 1469 1467 1464 1460 1456 1453 1450 1446 1444 1442 1440 1439 1438 1436 1435 1433 1432 1430 1428 1427 1425 1424 1423 1421
1508 1508 1506 1502 1495 1484 1489 1492 1493 1489 1482 1485 1485 1484 1484 1482 1480 1477 1473 1470 1467 1464 1461 1458 1454 1451 1447 1444 1441 1439 1437 1436 1434 1433 1431 1429 1427 1425 1423 1421 1420 1418 1417 1416
1499 1499 1501 1499 1495 1487 1489 1490 1489 1484 1484 1483 1482 1482 1481 1479 1476 1474 1471 1468 1465 1462 1459 1456 1452 1449 1446 1443 1439 1436 1434 1432 1430 1428 1426 1424 1422 1420 1418 1416 1414 1413 1412 1411
1497 1494 1491 1491 1487 1485 1485 1485 1484 1484 1483 1481 1480 1479 1478 1476 1473 1471 1468 1465 1463 1460 1457 1454 1450 1447 1444 1441 1438 1435 1432 1430 1427 1424 1422 1420 1418 1416 1414 1412 1410 1408 1407 1406
1495 1496 1494 1491 1485 1484 1483 1483 1482 1482 1480 1479 1478 1476 1475 1473 1471 1468 1466 1463 1460 1457 1455 1451 1448 1445 1442 1439 1436 1433 1430 1427 1424 1421 1419 1416 1414 1412 1410 1408 1406 1405 1403 1402
1491 1493 1491 1488 1484 1483 1480 1480 1479 1479 1478 1476 1475 1474 1472 1470 1468 1466 1463 1461 1458 1455 1452 1450 1447 1443 1440 1437 1434 1431 1428 1425 1421 1418 1416 1413 1411 1408 1406 1404 1403 1401 1400 1399
1488 1489 1487 1481 1481 1481 1478 1477 1477 1476 1475 1473 1472 1470 1469 1468 1465 1463 1460 1458 1456 1453 1450 1447 1444 1442 1438 1435 1432 1429 1426 1423 1420 1416 1414 1411 1408 1406 1403 1401 1399 1397 1396 1394